EW8073 Weather Reports


Display with metric or nautical units.
time (UTC)temp
F
wind
direction
speed
MPH
gust
MPH
rain 1hr
in
rain 24hr
in
rain mn
in
humidity
%
barometer
mb
20260506221647 43 221 0.0 2.0 0.00 0.00 0.00 71 1018.1
20260506221141 41 221 0.0 3.0 0.00 0.00 0.00 71 1018.1
20260506220129 40 221 0.0 0.0 0.00 0.01 0.00 73 1018.2
20260506215625 40 221 0.0 4.0 0.00 0.01 0.00 72 1018.2
20260506214614 39 219 0.0 4.0 0.00 0.01 0.00 73 1018.5
20260506214105 40 217 0.0 0.0 0.00 0.01 0.00 74 1018.5
20260506213600 39 216 0.0 0.0 0.00 0.01 0.00 75 1018.5
20260506213053 39 217 0.0 0.0 0.00 0.01 0.00 76 1018.5
20260506212547 40 216 0.0 0.0 0.00 0.01 0.00 78 1018.5
20260506212041 40 216 0.0 0.0 0.00 0.01 0.00 79 1018.5
20260506211030 40 215 0.0 3.0 0.00 0.01 0.00 79 1018.6
20260506210524 40 216 0.0 3.0 0.00 0.01 0.00 80 1018.7
20260506210019 40 215 0.0 2.0 0.00 0.01 0.00 81 1018.7
20260506205511 40 215 0.0 2.0 0.00 0.01 0.00 81 1018.9
20260506205005 40 215 0.0 0.0 0.00 0.01 0.00 82 1018.9
20260506204459 40 215 0.0 1.0 0.00 0.01 0.00 82 1018.9
20260506203954 40 215 0.0 1.0 0.00 0.01 0.00 82 1019.0
20260506203447 40 215 0.0 0.0 0.00 0.01 0.00 83 1019.0
20260506202941 40 214 0.0 0.0 0.00 0.01 0.00 83 1019.2
20260506202435 40 214 0.0 1.0 0.00 0.01 0.00 83 1019.2
20260506201929 40 214 0.0 1.0 0.00 0.01 0.00 83 1019.2
20260506201424 40 215 0.0 1.0 0.00 0.01 0.00 83 1019.2
20260506200917 40 215 0.0 1.0 0.00 0.01 0.00 82 1019.2
20260506195906 40 215 0.0 1.0 0.00 0.01 0.00 82 1019.2
20260506195400 40 215 0.0 1.0 0.00 0.01 0.00 82 1019.2
20260506193841 40 215 0.0 0.0 0.00 0.01 0.00 84 1019.4
20260506193336 40 215 0.0 0.0 0.00 0.01 0.00 84 1019.5
20260506192829 40 215 0.0 0.0 0.00 0.01 0.00 84 1019.5
20260506192323 40 214 0.0 0.0 0.00 0.01 0.00 85 1019.5
20260506191817 40 214 0.0 3.0 0.00 0.01 0.00 86 1019.6
20260506191311 40 214 0.0 3.0 0.00 0.01 0.00 86 1019.6
20260506190805 40 213 1.0 3.0 0.00 0.01 0.00 87 1019.6
20260506190259 40 95 0.0 2.0 0.00 0.01 0.00 87 1019.7
20260506185248 39 96 0.0 2.0 0.00 0.01 0.00 88 1019.9
20260506184741 38 95 0.0 1.0 0.00 0.01 0.00 89 1019.9
20260506184235 38 95 0.0 1.0 0.00 0.01 0.00 89 1020.0
20260506183728 38 96 0.0 1.0 0.00 0.01 0.00 89 1020.0
20260506183224 37 98 0.0 1.0 0.00 0.01 0.00 89 1020.0
20260506182718 37 0 0.0 1.0 0.00 0.01 0.00 89 1020.1
20260506181707 37 0 0.0 1.0 0.00 0.01 0.00 90 1020.1
20260506181200 37 98 0.0 0.0 0.00 0.01 0.00 90 1020.1
20260506180654 37 98 0.0 1.0 0.00 0.01 0.00 91 1020.0
20260506180148 37 0 0.0 2.0 0.00 0.01 0.00 91 1020.0
20260506175642 36 0 0.0 2.0 0.00 0.01 0.00 91 1020.0
20260506175136 36 95 0.0 1.0 0.00 0.01 0.00 91 1020.0
20260506174630 35 95 0.0 2.0 0.00 0.01 0.00 91 1019.9
20260506174126 35 95 0.0 2.0 0.00 0.01 0.00 91 1020.0
20260506173626 35 95 0.0 2.0 0.00 0.01 0.00 91 1020.0
20260506173123 34 95 1.0 3.0 0.00 0.01 0.00 91 1020.0
20260506172624 34 95 1.0 3.0 0.00 0.01 0.00 91 1020.0
20260506172123 34 96 1.0 6.0 0.00 0.01 0.00 91 1019.9
20260506171623 33 96 1.0 6.0 0.00 0.02 0.00 91 1019.9
20260506171119 33 78 1.0 6.0 0.00 0.02 0.00 91 1019.9
20260506170619 33 81 1.0 5.0 0.00 0.02 0.00 91 1019.7
20260506170119 33 86 1.0 9.0 0.00 0.02 0.00 91 1019.7
20260506165620 33 78 2.0 9.0 0.00 0.02 0.00 91 1019.6
20260506165119 33 256 1.0 7.0 0.00 0.02 0.00 91 1019.6
20260506164620 33 92 1.0 8.0 0.00 0.02 0.00 91 1019.5
20260506164117 33 87 1.0 6.0 0.00 0.02 0.00 92 1019.4
20260506163615 33 126 2.0 8.0 0.00 0.02 0.00 91 1019.2
20260506163115 33 67 2.0 8.0 0.00 0.02 0.00 91 1018.9
20260506162616 33 94 2.0 8.0 0.00 0.02 0.00 91 1019.2
20260506162115 33 91 1.0 8.0 0.00 0.02 0.00 91 1019.0
20260506161615 34 53 0.0 4.0 0.00 0.02 0.00 91 1018.9
20260506161116 34 333 0.0 0.0 0.00 0.02 0.00 92 1018.8
20260506160616 34 332 0.0 1.0 0.00 0.02 0.00 92 1018.6
20260506160117 34 336 0.0 2.0 0.00 0.02 0.00 92 1018.6
20260506155111 34 335 0.0 2.0 0.00 0.02 0.00 92 1018.8
20260506154612 33 335 0.0 3.0 0.00 0.02 0.00 91 1018.8
20260506154112 33 335 0.0 4.0 0.00 0.02 0.00 91 1018.7
20260506153612 33 334 0.0 4.0 0.00 0.02 0.00 92 1018.7
20260506152611 33 334 0.0 3.0 0.00 0.02 0.00 92 1018.6
20260506152111 33 334 0.0 2.0 0.00 0.02 0.00 92 1018.5
20260506151612 33 333 0.0 2.0 0.00 0.02 0.00 92 1018.5
20260506150600 33 333 0.0 5.0 0.00 0.02 0.00 92 1018.2
20260506150054 33 334 0.0 5.0 0.00 0.02 0.00 92 1018.2
20260506145548 33 334 0.0 3.0 0.00 0.02 0.00 92 1018.2
20260506145041 33 333 0.0 3.0 0.00 0.02 0.00 92 1018.2
20260506144532 33 333 0.0 3.0 0.00 0.02 0.00 92 1018.2
20260506144026 33 334 0.0 2.0 0.00 0.02 0.00 92 1018.2
20260506143520 33 334 0.0 2.0 0.00 0.02 0.00 92 1018.1
20260506143014 32 334 0.0 2.0 0.00 0.02 0.00 92 1018.0
20260506142509 32 334 0.0 2.0 0.00 0.02 0.00 92 1018.0
20260506142003 32 334 0.0 4.0 0.00 0.02 0.00 92 1018.0
20260506141458 32 334 0.0 4.0 0.00 0.02 0.00 92 1018.0
20260506140952 32 334 0.0 2.0 0.00 0.02 0.00 92 1018.0
20260506135938 32 334 0.0 0.0 0.00 0.02 0.00 92 1018.0
20260506135433 32 334 0.0 0.0 0.00 0.02 0.00 92 1018.0
20260506134933 32 334 0.0 0.0 0.00 0.02 0.00 92 1017.9
20260506134433 32 334 0.0 0.0 0.00 0.02 0.00 92 1017.9
20260506133931 32 334 0.0 0.0 0.00 0.02 0.00 92 1017.8
20260506133429 33 334 0.0 0.0 0.00 0.02 0.00 91 1017.8
20260506132927 33 333 0.0 0.0 0.00 0.02 0.00 91 1017.6
20260506132427 33 334 0.0 0.0 0.00 0.02 0.00 91 1017.5
20260506131927 33 333 0.0 0.0 0.00 0.02 0.00 91 1017.4
20260506130924 32 333 0.0 0.0 0.00 0.02 0.00 92 1017.2
20260506130421 32 333 0.0 0.0 0.00 0.02 0.00 92 1017.1
20260506125919 32 333 0.0 0.0 0.00 0.02 0.00 92 1016.9
20260506125419 32 333 0.0 0.0 0.00 0.02 0.00 91 1016.9
20260506124919 32 333 0.0 0.0 0.00 0.02 0.00 92 1016.7
20260506124420 32 333 0.0 0.0 0.00 0.02 0.00 91 1016.7
20260506123919 32 333 0.0 0.0 0.00 0.02 0.00 92 1016.7
20260506123417 32 333 0.0 0.0 0.00 0.02 0.00 92 1016.7
20260506122915 32 333 0.0 0.0 0.00 0.02 0.00 91 1016.7
20260506122413 32 333 0.0 0.0 0.00 0.02 0.00 92 1016.9
20260506121913 32 333 0.0 0.0 0.00 0.02 0.00 91 1016.8
20260506121408 32 333 0.0 0.0 0.00 0.02 0.00 92 1016.6
20260506120902 32 333 0.0 0.0 0.00 0.02 0.00 91 1016.6
20260506120355 32 333 0.0 0.0 0.00 0.02 0.00 91 1016.6
20260506115849 32 333 0.0 0.0 0.00 0.02 0.00 91 1016.6
20260506115343 32 333 0.0 0.0 0.00 0.02 0.00 91 1016.5
20260506114836 32 333 0.0 0.0 0.00 0.02 0.00 91 1016.5
20260506114331 32 333 0.0 0.0 0.00 0.02 0.00 91 1016.5
20260506113826 32 333 0.0 0.0 0.00 0.02 0.00 91 1016.5
20260506112813 32 333 0.0 0.0 0.00 0.02 0.00 91 1016.4
20260506112307 32 333 0.0 0.0 0.00 0.02 0.00 91 1016.2
20260506111800 32 333 0.0 0.0 0.00 0.02 0.00 91 1016.1
20260506111255 32 333 0.0 0.0 0.00 0.02 0.00 91 1016.2
20260506110749 32 333 0.0 0.0 0.00 0.02 0.00 91 1016.1
20260506110242 32 333 0.0 0.0 0.00 0.02 0.00 91 1016.0
20260506105738 32 333 0.0 0.0 0.00 0.02 0.00 91 1015.9
20260506105231 32 333 0.0 0.0 0.00 0.02 0.00 91 1015.9
20260506104724 32 333 0.0 0.0 0.00 0.02 0.00 91 1015.9
20260506104218 32 333 0.0 0.0 0.00 0.02 0.00 91 1015.9
20260506103712 32 333 0.0 0.0 0.00 0.02 0.00 91 1015.9
20260506103207 32 333 0.0 0.0 0.00 0.02 0.00 91 1015.9
20260506102155 32 333 0.0 0.0 0.00 0.02 0.00 91 1016.1
20260506101143 32 333 0.0 0.0 0.00 0.02 0.00 91 1016.1
20260506100637 32 333 0.0 0.0 0.00 0.02 0.00 91 1016.1
20260506095626 32 333 0.0 0.0 0.00 0.02 0.00 91 1016.2
20260506095119 32 333 0.0 0.0 0.00 0.02 0.00 91 1016.0
20260506094614 32 333 0.0 0.0 0.00 0.02 0.00 91 1016.0
20260506093613 32 333 0.0 0.0 0.00 0.02 0.00 91 1015.9
20260506093056 32 333 0.0 0.0 0.00 0.02 0.00 91 1015.9
20260506092549 32 333 0.0 0.0 0.00 0.02 0.00 91 1015.9
20260506092042 32 333 0.0 0.0 0.00 0.02 0.00 91 1015.9
20260506090525 32 333 0.0 0.0 0.00 0.02 0.00 91 1015.9
20260506090018 32 333 0.0 0.0 0.00 0.02 0.00 91 1015.8
20260506085513 32 333 0.0 0.0 0.00 0.02 0.00 91 1015.9
20260506085008 32 333 0.0 0.0 0.00 0.02 0.00 91 1015.8
20260506083955 32 333 0.0 0.0 0.00 0.02 0.00 91 1015.7
20260506083455 32 333 0.0 0.0 0.00 0.02 0.00 91 1015.7
20260506082952 32 333 0.0 0.0 0.00 0.02 0.00 91 1015.7
20260506082453 32 333 0.0 0.0 0.00 0.02 0.00 91 1015.8
20260506081953 32 333 0.0 0.0 0.00 0.02 0.00 91 1016.0
20260506081451 32 333 0.0 0.0 0.00 0.02 0.00 91 1016.2
20260506073448 32 333 0.0 0.0 0.00 0.02 0.00 91 1015.9
20260506072942 32 333 0.0 0.0 0.00 0.02 0.00 91 1015.9
20260506071943 32 333 0.0 0.0 0.00 0.02 0.00 91 1016.0
20260506071443 32 333 0.0 0.0 0.00 0.02 0.00 91 1016.0
20260506070942 32 333 0.0 0.0 0.00 0.02 0.00 91 1016.0
20260506062442 32 333 0.0 0.0 0.00 0.02 0.00 91 1015.5
20260506061942 32 333 0.0 0.0 0.00 0.02 0.00 91 1015.4
20260506060944 32 333 0.0 0.0 0.00 0.02 0.00 91 1015.5
20260506060441 32 333 0.0 0.0 0.00 0.02 0.00 91 1015.5
20260506050837 32 333 0.0 0.0 0.00 0.02 0.02 91 1015.0
20260506050331 32 333 0.0 0.0 0.00 0.02 0.02 91 1015.0
20260506044307 32 333 0.0 1.0 0.00 0.02 0.02 91 1015.1
20260506043800 32 333 0.0 1.0 0.00 0.02 0.02 90 1015.2
20260506043257 32 333 0.0 1.0 0.00 0.02 0.02 90 1015.2
20260506042757 32 333 0.0 1.0 0.00 0.02 0.02 90 1015.1
20260506041759 32 333 0.0 3.0 0.00 0.02 0.02 90 1015.1
20260506040756 32 333 0.0 2.0 0.00 0.02 0.02 90 1015.0
20260506040257 32 333 0.0 2.0 0.00 0.02 0.02 90 1015.0
20260506035757 33 333 0.0 2.0 0.00 0.02 0.02 90 1015.1
20260506035254 33 333 0.0 2.0 0.00 0.02 0.02 90 1015.0
20260506034753 33 333 0.0 1.0 0.00 0.02 0.02 90 1015.0
20260506034253 33 333 0.0 1.0 0.00 0.02 0.02 90 1015.0
20260506033753 33 333 0.0 3.0 0.00 0.02 0.02 90 1014.7
20260506033251 33 333 0.0 3.0 0.00 0.02 0.02 90 1014.6
20260506032249 33 333 0.0 3.0 0.00 0.02 0.02 90 1014.6
20260506031749 33 333 0.0 2.0 0.00 0.02 0.02 90 1014.6
20260506030748 33 333 0.0 2.0 0.00 0.02 0.02 90 1014.4
20260506030249 33 333 0.0 2.0 0.00 0.02 0.02 90 1014.3
20260506025246 33 333 0.0 3.0 0.00 0.02 0.02 90 1014.1
20260506024746 33 333 0.0 1.0 0.00 0.02 0.02 90 1014.0
20260506024248 33 333 0.0 1.0 0.00 0.02 0.02 90 1013.9
20260506023748 33 333 0.0 1.0 0.00 0.02 0.02 90 1013.8
20260506023248 33 333 0.0 0.0 0.00 0.02 0.02 90 1013.7
20260506022748 33 333 0.0 0.0 0.00 0.02 0.02 90 1013.6
20260506021743 33 333 0.0 0.0 0.00 0.02 0.02 90 1013.4
20260506020743 33 333 0.0 2.0 0.00 0.02 0.02 90 1013.3
20260506020244 33 333 0.0 2.0 0.00 0.02 0.02 90 1013.3
20260506015742 33 333 0.0 1.0 0.00 0.02 0.02 90 1013.2
20260506015244 33 333 0.0 2.0 0.00 0.02 0.02 90 1013.1
20260506014742 33 333 0.0 2.0 0.00 0.02 0.02 89 1013.1
20260506014242 33 333 0.0 1.0 0.00 0.02 0.02 89 1013.2
20260506013738 33 333 0.0 1.0 0.00 0.02 0.02 89 1013.1
20260506013239 33 333 0.0 1.0 0.00 0.02 0.02 89 1013.0
20260506011738 33 333 0.0 1.0 0.00 0.02 0.02 89 1012.9
20260506011238 33 333 0.0 1.0 0.00 0.02 0.02 89 1012.6
20260506010738 33 333 0.0 1.0 0.00 0.02 0.02 89 1012.6
20260506010238 33 333 0.0 1.0 0.00 0.02 0.02 89 1012.7
20260506005738 33 333 0.0 1.0 0.00 0.02 0.02 89 1012.7
20260506005238 33 333 0.0 1.0 0.00 0.02 0.02 89 1012.7
20260506004232 33 333 0.0 1.0 0.00 0.02 0.02 89 1012.5
20260506003217 33 333 0.0 1.0 0.00 0.02 0.02 89 1012.6
20260506002712 33 333 0.0 1.0 0.00 0.02 0.02 89 1012.4
20260506002206 33 333 0.0 1.0 0.00 0.02 0.02 89 1012.5
20260506001155 33 333 0.0 1.0 0.00 0.02 0.02 89 1012.3
20260506000142 33 333 0.0 1.0 0.00 0.02 0.02 89 1012.5
20260505235636 33 333 0.0 0.0 0.00 0.02 0.02 89 1012.3
20260505234623 33 333 0.0 1.0 0.00 0.02 0.02 88 1012.2
20260505234117 34 333 0.0 1.0 0.00 0.02 0.02 88 1012.0
20260505233612 34 333 0.0 2.0 0.00 0.02 0.02 88 1012.0
20260505232600 35 333 0.0 3.0 0.00 0.02 0.02 88 1012.2
20260505231547 36 250 1.0 6.0 0.00 0.02 0.02 88 1012.2
20260505231042 37 355 1.0 6.0 0.00 0.02 0.02 88 1012.3
20260505230536 38 319 1.0 5.0 0.00 0.02 0.02 89 1012.4
20260505225524 38 316 0.0 4.0 0.01 0.02 0.02 88 1011.8
20260505225017 38 316 1.0 4.0 0.01 0.02 0.02 88 1011.6
20260505224511 38 315 1.0 6.0 0.01 0.02 0.02 88 1011.5
20260505224006 38 351 1.0 6.0 0.01 0.02 0.02 89 1011.3
20260505223501 38 345 1.0 5.0 0.01 0.02 0.02 89 1011.2
20260505222954 38 351 1.0 5.0 0.01 0.02 0.02 88 1011.3